Location: Alberta Star Party
(51.6612°N, 112.9089°W)
Time: 14:20:53
(UTC-07:00)

Amateur Radio Satellites - All Passes

Search period start: 23 January 2018 13:50
Search period end: 24 January 2018 13:50
Location: Alberta Star Party, 51.6612°N, 112.9089°W

Satellite Date Start Highest point End Downlink Frequencies (MHz)
Time Altitude Azimuth
DX 1 23 Jan 13:53:32 13:57:11 25° 94° (E) 14:00:48 434.975-435.025
BUGSAT 1 23 Jan 13:59:15 14:02:03 17° 270° (W) 14:04:53 437.445
ESTCUBE 1 23 Jan 14:01:42 14:04:15 15° 305° (NW) 14:06:48 437.505/2401.250
AO-91 23 Jan 14:08:29 14:10:50 17° 270° (W) 14:13:16 145.960
Oscar 19 23 Jan 14:11:23 14:15:50 28° 267° (W) 14:20:17 437.125/150
50 SAT 23 Jan 14:11:26 14:14:13 29° 97° (E) 14:16:59 437.505
AO-7 23 Jan 14:13:25 14:21:40 67° 62° (ENE) 14:29:59 .
Gurwin Techsat 1B 23 Jan 14:20:50 14:25:29 31° 266° (W) 14:30:11 435.225
MOZHAYETS 4 23 Jan 14:30:45 14:33:19 14° 87° (E) 14:35:51
BEESAT 3 23 Jan 14:32:20 14:34:20 13° 10° (N) 14:36:19 437.485
SPROUT 23 Jan 14:57:57 15:00:14 14° 304° (NW) 15:02:30 437.525
BEESAT 23 Jan 15:05:19 15:08:33 18° 89° (E) 15:11:46 436.000
HO-68 23 Jan 15:08:00 15:08:06 10° 28° (NNE) 15:08:12 435.675
PCSat 23 Jan 15:10:31 15:14:05 17° 12° (NNE) 15:17:38 145.827
UKube-1 23 Jan 15:10:48 15:15:09 85° 108° (ESE) 15:19:27 .
AO-85 23 Jan 15:20:58 15:23:56 17° 350° (N) 15:27:03 145.980
SO-50 23 Jan 15:22:00 15:22:48 10° 252° (WSW) 15:23:38 436.795
ITAMSAT 1 23 Jan 15:22:53 15:28:04 85° 255° (WSW) 15:33:17 435.822/435.867
VELOX 1 23 Jan 15:24:10 15:26:39 15° 305° (NW) 15:29:08 145.980
BEESAT 2 23 Jan 15:27:37 15:29:45 14° 10° (N) 15:31:54 435.950
DX 1 23 Jan 15:29:24 15:33:32 43° 293° (WNW) 15:37:38 434.975-435.025
M-CUBED/EXP-1 PRIME 23 Jan 15:36:41 15:40:41 48° 64° (ENE) 15:44:26 437.505
RS-15 23 Jan 15:40:59 15:52:59 70° 39° (NE) 16:04:17 29.354- 29.394
CUTE-I 23 Jan 15:42:12 15:44:19 12° 47° (NE) 15:46:25 437.470
50 SAT 23 Jan 15:43:24 15:45:46 20° 295° (WNW) 15:48:08 437.505
DOVE 4 23 Jan 15:51:17 15:55:18 47° 70° (ENE) 15:59:18 437.250
LilacSat-2 23 Jan 15:57:03 15:57:55 11° 55° (NE) 15:58:46 437.200
ITUPSAT 1 23 Jan 16:04:27 16:09:12 54° 101° (E) 16:13:55 437.325
MOZHAYETS 4 23 Jan 16:06:26 16:11:06 84° 287° (WNW) 16:15:43
AO-7 23 Jan 16:07:24 16:14:58 37° 264° (W) 16:22:37 .
BEESAT 3 23 Jan 16:09:34 16:13:03 28° 33° (NNE) 16:16:29 437.485
NO-84 23 Jan 16:13:32 16:15:02 13° 135° (SE) 16:16:30 435.350 FM
CUBESAT XI-V 23 Jan 16:17:42 16:22:01 38° 97° (E) 16:26:19 437.345
KAITUO 1B 23 Jan 16:20:38 16:22:06 12° 57° (ENE) 16:23:33 145.475/437.950
NUDT-PHONESAT 23 Jan 16:25:38 16:27:16 13° 58° (ENE) 16:28:53 437.300
XW-2F 23 Jan 16:26:39 16:29:09 17° 61° (ENE) 16:31:39 145.980 - 146.000
XW-2D 23 Jan 16:38:24 16:41:29 24° 64° (ENE) 16:44:34 145.860 - 145.880
BEESAT 23 Jan 16:42:02 16:46:51 73° 289° (WNW) 16:51:37 436.000
HO-68 23 Jan 16:47:39 16:53:38 30° 52° (NE) 16:59:38 435.675
UKube-1 23 Jan 16:48:03 16:50:35 15° 304° (NW) 16:53:05 .
PCSat 23 Jan 16:54:04 16:59:04 36° 37° (NE) 17:04:04 145.827
XW-2B 23 Jan 16:55:42 16:59:08 32° 67° (ENE) 17:02:34 145.730 - 145.750
AO-85 23 Jan 17:02:45 17:06:00 18° 14° (NNE) 17:09:26 145.980
BEESAT 2 23 Jan 17:05:06 17:08:41 29° 33° (NNE) 17:12:14 435.950
ITAMSAT 1 23 Jan 17:05:33 17:08:20 14° 274° (W) 17:11:09 435.822/435.867
M-CUBED/EXP-1 PRIME 23 Jan 17:12:01 17:15:14 21° 260° (W) 17:18:19 437.505
KKS-1 23 Jan 17:13:19 17:16:50 22° 92° (E) 17:20:20 437.445
SEEDS 23 Jan 17:16:41 17:18:56 14° 57° (ENE) 17:21:10 437.485
CUTE-I 23 Jan 17:18:07 17:23:17 55° 68° (ENE) 17:28:29 437.470
STARS 23 Jan 17:21:38 17:23:17 12° 86° (E) 17:24:56 437.465
XW-2C 23 Jan 17:25:49 17:29:37 68° 74° (ENE) 17:33:25 145.795 - 145.815
LilacSat-2 23 Jan 17:27:39 17:31:29 77° 76° (ENE) 17:35:21 437.200
DOVE 4 23 Jan 17:30:06 17:33:17 21° 268° (W) 17:36:27 437.250
CUTE 1.7 + AOD 2 23 Jan 17:33:44 17:37:25 29° 65° (ENE) 17:41:06 437.475
ITUPSAT 1 23 Jan 17:42:47 17:46:45 26° 300° (WNW) 17:50:42 437.325
MOZHAYETS 4 23 Jan 17:44:57 17:47:34 15° 306° (NW) 17:50:10
BEESAT 3 23 Jan 17:46:57 17:50:49 56° 234° (SW) 17:54:37 437.485
NO-84 23 Jan 17:48:45 17:51:46 68° 153° (SSE) 17:54:38 435.350 FM
KAITUO 1B 23 Jan 17:51:43 17:55:29 88° 262° (W) 17:59:15 145.475/437.950
RS-15 23 Jan 17:54:02 18:05:05 50° 246° (WSW) 18:15:36 29.354- 29.394
CUBESAT XI-V 23 Jan 17:55:14 17:59:19 32° 296° (WNW) 18:03:23 437.345
NUDT-PHONESAT 23 Jan 17:56:48 18:00:32 82° 256° (WSW) 18:04:17 437.300
XW-2F 23 Jan 17:59:07 18:02:52 57° 259° (W) 18:06:38 145.980 - 146.000
XW-2D 23 Jan 18:11:54 18:15:29 38° 263° (W) 18:19:04 145.860 - 145.880
UWE-3 23 Jan 18:16:51 18:20:51 32° 64° (ENE) 18:24:58 435.000/436.395/437.385
CUBEBUG 2 23 Jan 18:17:48 18:22:08 51° 69° (ENE) 18:26:39 437.445
BEESAT 23 Jan 18:21:21 18:23:50 14° 308° (NW) 18:26:19 436.000
AAUSAT CUBESAT 2 23 Jan 18:22:27 18:25:51 25° 64° (ENE) 18:29:15 437.432
XW-2B 23 Jan 18:30:05 18:33:20 26° 265° (W) 18:36:37 145.730 - 145.750
ZACube-1 23 Jan 18:33:33 18:37:20 27° 62° (ENE) 18:41:10 437.345
HO-68 23 Jan 18:33:37 18:40:47 78° 254° (WSW) 18:48:00 435.675
PCSat 23 Jan 18:37:26 18:42:48 61° 239° (WSW) 18:48:07 145.827
AO-73 23 Jan 18:38:19 18:42:04 26° 62° (ENE) 18:45:53 145.935
BEESAT 2 23 Jan 18:42:41 18:46:39 55° 234° (SW) 18:50:32 435.950
AO-85 23 Jan 18:43:03 18:47:34 41° 37° (NE) 18:52:24 145.980
KKS-1 23 Jan 18:49:20 18:53:40 51° 291° (WNW) 18:57:59 437.445
SEEDS 23 Jan 18:49:48 18:54:01 87° 256° (WSW) 18:58:15 437.485
STRAND 1 23 Jan 18:54:26 18:57:53 18° 88° (E) 19:01:18 437.568
STARS 23 Jan 18:55:51 19:00:19 85° 105° (ESE) 19:04:45 437.465
CUTE-I 23 Jan 18:59:11 19:03:39 27° 267° (W) 19:08:09 437.470
XW-2A 23 Jan 19:01:01 19:04:18 44° 70° (ENE) 19:07:34 145.665 - 145.685
XW-2C 23 Jan 19:02:19 19:04:13 13° 272° (W) 19:06:08 145.795 - 145.815
LilacSat-2 23 Jan 19:04:44 19:06:16 12° 273° (W) 19:07:48 437.200
Oscar 11 23 Jan 19:07:52 19:11:42 31° 65° (ENE) 19:15:32 .
CUTE 1.7 + AOD 2 23 Jan 19:09:11 19:13:09 37° 263° (W) 19:17:08 437.475
NO-84 23 Jan 19:26:13 19:29:02 42° 353° (N) 19:31:45 435.350 FM
UWE-3 23 Jan 19:53:02 19:57:14 38° 264° (W) 20:01:33 435.000/436.395/437.385
CUBEBUG 2 23 Jan 19:55:28 19:59:02 23° 269° (W) 20:02:44 437.445
AAUSAT CUBESAT 2 23 Jan 19:57:14 20:01:08 40° 262° (W) 20:05:03 437.432
Max Valier Satellite 23 Jan 20:02:52 20:05:05 15° 60° (ENE) 20:07:19 145.860
DELFI C3 23 Jan 20:03:36 20:06:40 22° 63° (ENE) 20:09:45 145.870
ZACube-1 23 Jan 20:09:03 20:13:23 46° 262° (W) 20:17:50 437.345
RS-15 23 Jan 20:10:45 20:14:09 12° 271° (W) 20:17:31 29.354- 29.394
FO-29 23 Jan 20:13:41 20:18:28 36° 96° (E) 20:23:17 435.910
AO-73 23 Jan 20:13:44 20:18:05 47° 262° (W) 20:22:31 145.935
EO-88 23 Jan 20:14:07 20:15:58 14° 59° (ENE) 20:17:49 145.990 - 145.960
AO-85 23 Jan 20:23:26 20:28:08 48° 236° (SW) 20:33:07 145.980
PCSat 23 Jan 20:23:34 20:25:06 11° 259° (WSW) 20:26:38 145.827
HO-68 23 Jan 20:25:01 20:29:42 18° 275° (W) 20:34:25 435.675
SEEDS 23 Jan 20:29:04 20:30:21 11° 275° (W) 20:31:39 437.485
STRAND 1 23 Jan 20:32:31 20:37:41 80° 287° (WNW) 20:42:50 437.568
STARS 23 Jan 20:33:24 20:36:04 16° 305° (NW) 20:38:45 437.465
XW-2A 23 Jan 20:35:01 20:37:12 16° 269° (W) 20:39:23 145.665 - 145.685
Oscar 11 23 Jan 20:43:45 20:47:46 36° 264° (W) 20:51:49 .
nSIGHT-1 23 Jan 20:46:21 20:49:15 34° 152° (SSE) 20:52:09 .
UNISAT 6 23 Jan 21:00:12 21:02:39 14° 86° (E) 21:05:05 437.425
NO-84 23 Jan 21:03:40 21:06:29 52° 15° (NNE) 21:09:15 435.350 FM
ISS 23 Jan 21:12:56 21:16:00 39° 154° (SSE) 21:19:05 437.550
LO-87 23 Jan 21:23:18 21:24:36 12° 57° (ENE) 21:25:55 145.935 - 145.965
Max Valier Satellite 23 Jan 21:34:44 21:38:27 64° 258° (WSW) 21:42:12 145.860
DELFI C3 23 Jan 21:37:28 21:41:12 42° 262° (W) 21:44:56 145.870
EO-88 23 Jan 21:45:28 21:49:06 71° 256° (WSW) 21:52:47 145.990 - 145.960
ESTCUBE 1 23 Jan 21:52:25 21:56:02 24° 61° (ENE) 21:59:39 437.505/2401.250
FO-29 23 Jan 21:58:53 22:03:42 38° 296° (WNW) 22:08:30 435.910
STRAND 1 23 Jan 22:12:58 22:16:08 17° 308° (NW) 22:19:17 437.568
YUBILEINY 23 Jan 22:16:31 22:24:22 38° 83° (E) 22:32:11 435.215
TIGRISAT 23 Jan 22:19:02 22:23:44 61° 101° (E) 22:28:22 435.000
nSIGHT-1 23 Jan 22:22:03 22:25:13 85° 176° (S) 22:28:24 .
UNISAT 6 23 Jan 22:35:17 22:40:02 90° 65° (ENE) 22:44:44 437.425
NO-84 23 Jan 22:40:54 22:43:33 37° 214° (SW) 22:46:14 435.350 FM
SPROUT 23 Jan 22:44:20 22:47:25 20° 60° (ENE) 22:50:32 437.525
ISS 23 Jan 22:49:03 22:52:20 88° 171° (S) 22:55:37 437.550
LO-87 23 Jan 22:53:50 22:57:25 84° 256° (WSW) 23:01:03 145.935 - 145.965
VELOX 1 23 Jan 23:13:21 23:16:47 23° 60° (ENE) 23:20:13 145.980
EO-79 23 Jan 23:18:08 23:19:40 12° 86° (E) 23:21:14 145.935-145.965
PRISM 23 Jan 23:20:00 23:24:03 60° 102° (ESE) 23:28:06 437.425
O/OREOS (USA 219) 23 Jan 23:27:25 23:30:22 17° 101° (E) 23:33:18 437.305
ESTCUBE 1 23 Jan 23:28:07 23:32:33 52° 260° (W) 23:37:00 437.505/2401.250
AIST 2D 23 Jan 23:46:05 23:49:33 62° 102° (ESE) 23:52:59 435.315
POLYITAN 1 23 Jan 23:52:33 23:56:06 24° 93° (E) 23:59:37 437.675
TIGRISAT 23 Jan 23:56:23 00:00:01 23° 300° (WNW) 00:03:40 435.000
nSIGHT-1 23 Jan 23:58:13 00:01:23 77° 192° (SSW) 00:04:34 .
NANOSAT C BR1 24 Jan 00:04:43 00:08:25 28° 94° (E) 00:12:07 145.865
YUBILEINY 24 Jan 00:12:03 00:20:46 63° 287° (WNW) 00:29:31 435.215
UNISAT 6 24 Jan 00:13:11 00:16:05 16° 305° (NW) 00:19:00 437.425
SPROUT 24 Jan 00:18:43 00:22:55 60° 258° (WSW) 00:27:11 437.525
QB50P2 24 Jan 00:22:11 00:26:24 50° 100° (E) 00:30:35 145.880/145.840
ISS 24 Jan 00:25:32 00:28:48 73° 195° (SSW) 00:32:05 437.550
UKube-1 24 Jan 00:35:29 00:38:43 21° 59° (ENE) 00:41:57 .
Oscar 19 24 Jan 00:39:21 00:41:06 12° 84° (E) 00:42:50 437.125/150
50 SAT 24 Jan 00:40:47 00:43:14 22° 65° (ENE) 00:45:41 437.505
DUCHIFAT 1 24 Jan 00:46:04 00:50:18 60° 102° (ESE) 00:54:31 145.980
VELOX 1 24 Jan 00:48:39 00:52:56 53° 259° (W) 00:57:15 145.980
EO-79 24 Jan 00:51:47 00:56:06 88° 104° (ESE) 01:00:23 145.935-145.965
Gurwin Techsat 1B 24 Jan 00:52:43 00:54:47 12° 84° (E) 00:56:52 435.225
DX 1 24 Jan 00:53:47 00:57:53 44° 67° (ENE) 01:02:00 434.975-435.025
PRISM 24 Jan 00:56:06 00:58:57 18° 301° (WNW) 01:01:46 437.425
O/OREOS (USA 219) 24 Jan 01:04:46 01:09:15 70° 300° (WNW) 01:13:45 437.305
AIST 2D 24 Jan 01:20:28 01:22:16 14° 300° (WNW) 01:24:03 435.315
POLYITAN 1 24 Jan 01:27:57 01:32:03 44° 292° (WNW) 01:36:07 437.675
BUGSAT 1 24 Jan 01:33:33 01:37:42 47° 99° (E) 01:41:48 437.445
nSIGHT-1 24 Jan 01:34:33 01:37:16 26° 211° (SSW) 01:40:00 .
MOZHAYETS 4 24 Jan 01:37:07 01:40:59 27° 62° (ENE) 01:44:53
NANOSAT C BR1 24 Jan 01:40:15 01:44:13 37° 293° (WNW) 01:48:09 145.865
ITUPSAT 1 24 Jan 01:40:17 01:43:45 20° 57° (ENE) 01:47:14 437.325
AO-91 24 Jan 01:49:36 01:54:00 51° 100° (E) 01:58:49 145.960
CUBESAT XI-V 24 Jan 01:51:47 01:53:51 13° 53° (NE) 01:55:55 437.345
QB50P2 24 Jan 01:58:32 02:01:54 23° 299° (WNW) 02:05:16 145.880/145.840
ISS 24 Jan 02:02:15 02:04:58 24° 213° (SSW) 02:07:41 437.550
UKube-1 24 Jan 02:10:10 02:14:23 57° 259° (WSW) 02:18:38 .
AO-7 24 Jan 02:11:11 02:14:58 13° 81° (E) 02:18:43 .
50 SAT 24 Jan 02:12:10 02:14:49 26° 264° (W) 02:17:30 437.505
YUBILEINY 24 Jan 02:13:52 02:19:44 19° 313° (NW) 02:25:37 435.215
Oscar 19 24 Jan 02:16:12 02:21:24 70° 103° (ESE) 02:26:32 437.125/150
BEESAT 24 Jan 02:16:19 02:20:42 37° 64° (ENE) 02:25:07 436.000
DUCHIFAT 1 24 Jan 02:22:30 02:25:34 20° 301° (WNW) 02:28:38 145.980
EO-79 24 Jan 02:28:52 02:31:15 15° 304° (NW) 02:33:38 145.935-145.965
Gurwin Techsat 1B 24 Jan 02:30:22 02:35:43 71° 103° (ESE) 02:41:02 435.225
DX 1 24 Jan 02:30:41 02:34:14 25° 266° (W) 02:37:50 434.975-435.025
O/OREOS (USA 219) 24 Jan 02:46:48 02:49:31 16° 322° (NW) 02:52:14 437.305
BUGSAT 1 24 Jan 03:09:23 03:12:48 24° 298° (WNW) 03:16:12 437.445
MOZHAYETS 4 24 Jan 03:13:26 03:17:55 48° 261° (W) 03:22:27
ITUPSAT 1 24 Jan 03:16:18 03:21:05 73° 257° (WSW) 03:25:56 437.325
CUBESAT XI-V 24 Jan 03:25:45 03:30:25 69° 72° (ENE) 03:35:04 437.345
AO-91 24 Jan 03:26:35 03:30:15 26° 296° (WNW) 03:34:12 145.960
ITAMSAT 1 24 Jan 03:30:42 03:34:46 23° 91° (E) 03:38:50 435.822/435.867
BEESAT 24 Jan 03:54:09 03:58:29 34° 263° (W) 04:02:53 436.000
Oscar 19 24 Jan 03:56:16 04:00:15 23° 303° (WNW) 04:04:14 437.125/150
SO-50 24 Jan 04:00:57 04:02:20 11° 109° (ESE) 04:03:42 436.795
AO-7 24 Jan 04:01:25 04:09:42 58° 103° (ESE) 04:17:52 .
Gurwin Techsat 1B 24 Jan 04:11:04 04:15:12 24° 303° (WNW) 04:19:20 435.225
KKS-1 24 Jan 04:16:05 04:20:12 40° 66° (ENE) 04:24:21 437.445
STARS 24 Jan 04:22:23 04:25:44 22° 60° (ENE) 04:29:06 437.465
M-CUBED/EXP-1 PRIME 24 Jan 04:46:07 04:46:36 10° 94° (E) 04:47:05 437.505
ITUPSAT 1 24 Jan 04:58:25 04:59:47 11° 276° (W) 05:01:10 437.325
CUBESAT XI-V 24 Jan 05:05:04 05:08:16 18° 271° (W) 05:11:27 437.345
ITAMSAT 1 24 Jan 05:09:31 05:14:41 64° 291° (WNW) 05:19:50 435.822/435.867
DOVE 4 24 Jan 05:21:00 05:25:21 63° 102° (ESE) 05:29:55 437.250
XW-2F 24 Jan 05:27:58 05:28:33 10° 86° (E) 05:29:09 145.980 - 146.000
CUTE-I 24 Jan 05:30:55 05:33:40 14° 85° (E) 05:36:25 437.470
SO-50 24 Jan 05:37:28 05:41:55 68° 128° (SE) 05:46:27 436.795
XW-2D 24 Jan 05:39:28 05:41:48 16° 90° (E) 05:44:07 145.860 - 145.880
KKS-1 24 Jan 05:53:03 05:56:52 28° 265° (W) 06:00:44 437.445
AO-7 24 Jan 05:54:30 06:02:20 46° 305° (NW) 06:10:06 .
XW-2B 24 Jan 05:56:44 05:59:44 22° 93° (E) 06:02:42 145.730 - 145.750
HO-68 24 Jan 05:56:49 06:00:57 16° 83° (E) 06:05:04 435.675
STARS 24 Jan 05:57:28 06:01:45 55° 259° (WSW) 06:06:05 437.465
STRAND 1 24 Jan 06:15:07 06:19:53 42° 65° (ENE) 06:24:43 437.568
RS-15 24 Jan 06:15:20 06:23:14 20° 96° (E) 06:31:02 29.354- 29.394
M-CUBED/EXP-1 PRIME 24 Jan 06:18:09 06:21:31 68° 293° (WNW) 06:24:45 437.505
XW-2C 24 Jan 06:26:55 06:30:34 46° 99° (E) 06:34:10 145.795 - 145.815
LilacSat-2 24 Jan 06:29:32 06:33:16 53° 100° (E) 06:36:58 437.200
SEEDS 24 Jan 06:30:08 06:31:22 11° 85° (E) 06:32:34 437.485
FO-29 24 Jan 06:31:21 06:36:56 34° 62° (ENE) 06:42:00 435.910
CUTE 1.7 + AOD 2 24 Jan 06:48:23 06:51:58 26° 93° (E) 06:55:30 437.475
ITAMSAT 1 24 Jan 06:50:37 06:53:13 14° 311° (NW) 06:55:50 435.822/435.867
KAITUO 1B 24 Jan 06:51:02 06:54:43 61° 101° (E) 06:58:21 145.475/437.950
NUDT-PHONESAT 24 Jan 06:54:58 06:58:38 63° 102° (ESE) 07:02:15 437.300
XW-2F 24 Jan 06:59:27 07:03:13 84° 285° (WNW) 07:06:57 145.980 - 146.000
DOVE 4 24 Jan 06:59:34 07:02:42 20° 300° (WNW) 07:05:57 437.250
CUTE-I 24 Jan 07:09:14 07:14:35 80° 105° (ESE) 07:19:56 437.470
XW-2D 24 Jan 07:12:37 07:16:18 54° 288° (WNW) 07:19:58 145.860 - 145.880
SO-50 24 Jan 07:18:43 07:22:45 30° 330° (NNW) 07:26:51 436.795
XW-2B 24 Jan 07:30:31 07:34:02 37° 292° (WNW) 07:37:30 145.730 - 145.750
AAUSAT CUBESAT 2 24 Jan 07:33:50 07:37:01 21° 92° (E) 07:40:12 437.432
UWE-3 24 Jan 07:36:44 07:40:59 33° 94° (E) 07:45:09 435.000/436.395/437.385
CUBEBUG 2 24 Jan 07:39:12 07:43:55 57° 100° (E) 07:48:35 437.445
HO-68 24 Jan 07:42:51 07:50:02 70° 105° (ESE) 07:57:10 435.675
AO-7 24 Jan 07:48:09 07:53:07 18° 330° (NNW) 07:58:05 .
TIGRISAT 24 Jan 07:48:10 07:50:59 17° 56° (NE) 07:53:52 435.000
XW-2A 24 Jan 07:49:53 07:52:34 21° 94° (E) 07:55:12 145.665 - 145.685
O/OREOS (USA 219) 24 Jan 07:51:31 07:54:34 18° 40° (NE) 07:57:37 437.305
ZACube-1 24 Jan 07:51:58 07:55:48 26° 92° (E) 07:59:33 437.345
STRAND 1 24 Jan 07:54:36 07:59:11 33° 265° (W) 08:03:50 437.568
AO-73 24 Jan 07:56:20 08:00:07 25° 92° (E) 08:03:49 145.935
XW-2C 24 Jan 08:01:42 08:04:27 19° 298° (WNW) 08:07:11 145.795 - 145.815
SEEDS 24 Jan 08:03:31 08:07:43 88° 111° (ESE) 08:11:52 437.485
UNISAT 6 24 Jan 08:03:37 08:07:10 23° 60° (ENE) 08:10:46 437.425
LilacSat-2 24 Jan 08:04:37 08:07:12 18° 299° (WNW) 08:09:45 437.200
FO-29 24 Jan 08:15:36 08:21:55 52° 260° (W) 08:27:33 435.910
YUBILEINY 24 Jan 08:18:50 08:26:00 27° 55° (NE) 08:33:04 435.215
RS-15 24 Jan 08:21:13 08:33:19 66° 121° (ESE) 08:45:10 29.354- 29.394
CUTE 1.7 + AOD 2 24 Jan 08:23:59 08:27:55 39° 292° (WNW) 08:31:49 437.475
Oscar 11 24 Jan 08:25:11 08:29:00 29° 94° (E) 08:32:46 .
KAITUO 1B 24 Jan 08:26:03 08:28:16 15° 300° (WNW) 08:30:28 145.475/437.950
NUDT-PHONESAT 24 Jan 08:29:55 08:32:01 15° 300° (WNW) 08:34:07 437.300
XW-2F 24 Jan 08:35:41 08:36:40 11° 304° (NW) 08:37:40 145.980 - 146.000
PRISM 24 Jan 08:41:25 08:43:19 13° 55° (NE) 08:45:13 437.425
CUTE-I 24 Jan 08:50:10 08:54:05 21° 305° (NW) 08:58:00 437.470
SO-50 24 Jan 09:01:33 09:04:34 17° 354° (N) 09:07:38 436.795
AAUSAT CUBESAT 2 24 Jan 09:08:45 09:12:42 46° 290° (WNW) 09:16:37 437.432
DELFI C3 24 Jan 09:09:11 09:11:46 17° 90° (E) 09:14:21 145.870
UWE-3 24 Jan 09:13:08 09:17:27 37° 294° (WNW) 09:21:43 435.000/436.395/437.385
CUBEBUG 2 24 Jan 09:16:22 09:20:12 24° 299° (WNW) 09:24:00 437.445
BEESAT 3 24 Jan 09:17:41 09:21:24 39° 123° (ESE) 09:25:09 437.485
XW-2A 24 Jan 09:22:18 09:25:18 30° 292° (WNW) 09:28:16 145.665 - 145.685
TIGRISAT 24 Jan 09:22:32 09:27:03 86° 259° (W) 09:31:42 435.000
PCSat 24 Jan 09:24:13 09:29:15 40° 116° (ESE) 09:34:18 145.827
ZACube-1 24 Jan 09:27:53 09:32:16 45° 292° (WNW) 09:36:33 437.345
O/OREOS (USA 219) 24 Jan 09:30:10 09:34:41 85° 62° (ENE) 09:39:10 437.305
HO-68 24 Jan 09:31:06 09:37:19 33° 306° (NW) 09:43:31 435.675
AO-73 24 Jan 09:32:11 09:36:33 46° 291° (WNW) 09:40:49 145.935
UNISAT 6 24 Jan 09:39:05 09:43:31 56° 260° (W) 09:48:05 437.425
SEEDS 24 Jan 09:40:38 09:42:47 14° 303° (WNW) 09:44:56 437.485
AO-7 24 Jan 09:41:42 09:42:32 10° 357° (N) 09:43:23 .
QB50P2 24 Jan 09:46:55 09:48:39 12° 54° (NE) 09:50:22 145.880/145.840
Oscar 11 24 Jan 10:01:13 10:05:13 37° 293° (WNW) 10:09:10 .
DUCHIFAT 1 24 Jan 10:09:31 10:11:40 14° 55° (NE) 10:13:50 145.980
PRISM 24 Jan 10:13:54 10:17:58 88° 74° (ENE) 10:22:03 437.425
EO-79 24 Jan 10:14:50 10:17:49 19° 59° (ENE) 10:20:49 145.935-145.965
BEESAT 2 24 Jan 10:15:15 10:19:03 42° 123° (ESE) 10:22:53 435.950
YUBILEINY 24 Jan 10:15:20 10:24:09 89° 86° (E) 10:32:51 435.215
AIST 2D 24 Jan 10:24:47 10:28:11 50° 72° (ENE) 10:31:37 435.315
Max Valier Satellite 24 Jan 10:32:42 10:36:26 82° 104° (ESE) 10:40:06 145.860
RS-15 24 Jan 10:34:06 10:46:17 60° 328° (NNW) 10:58:05 29.354- 29.394
EO-88 24 Jan 10:41:55 10:45:33 69° 102° (ESE) 10:49:09 145.990 - 145.960
DELFI C3 24 Jan 10:42:59 10:46:50 55° 288° (WNW) 10:50:41 145.870
SO-50 24 Jan 10:43:04 10:46:37 21° 19° (NNE) 10:50:12 436.795
AO-85 24 Jan 10:44:53 10:47:02 14° 110° (ESE) 10:49:14 145.980
POLYITAN 1 24 Jan 10:49:45 10:53:39 36° 66° (ENE) 10:57:37 437.675
BEESAT 3 24 Jan 10:55:16 10:58:58 36° 323° (NW) 11:02:42 437.485
BUGSAT 1 24 Jan 10:56:29 10:57:28 11° 52° (NE) 10:58:28 437.445
NANOSAT C BR1 24 Jan 11:01:25 11:05:24 41° 67° (ENE) 11:09:25 145.865
TIGRISAT 24 Jan 11:02:34 11:04:29 12° 275° (W) 11:06:26 435.000
PCSat 24 Jan 11:07:23 11:12:37 47° 317° (NW) 11:17:53 145.827
O/OREOS (USA 219) 24 Jan 11:11:07 11:13:26 14° 261° (W) 11:15:44 437.305
ESTCUBE 1 24 Jan 11:15:21 11:18:55 23° 92° (E) 11:22:27 437.505/2401.250
QB50P2 24 Jan 11:19:26 11:23:41 75° 73° (ENE) 11:27:59 145.880/145.840
HO-68 24 Jan 11:21:17 11:22:59 11° 330° (NNW) 11:24:41 435.675
AO-7 24 Jan 11:27:36 11:31:49 15° 25° (NNE) 11:36:02 .
DUCHIFAT 1 24 Jan 11:42:27 11:46:41 87° 74° (ENE) 11:50:57 145.980
LO-87 24 Jan 11:48:18 11:51:54 56° 101° (E) 11:55:28 145.935 - 145.965
EO-79 24 Jan 11:48:56 11:53:09 64° 258° (WSW) 11:57:25 145.935-145.965
PRISM 24 Jan 11:52:31 11:53:51 11° 273° (W) 11:55:10 437.425
BEESAT 2 24 Jan 11:53:05 11:56:50 35° 324° (NW) 12:00:37 435.950
SPROUT 24 Jan 11:59:32 12:02:19 17° 89° (E) 12:05:04 437.525
AIST 2D 24 Jan 11:59:35 12:01:39 15° 270° (W) 12:03:42 435.315
Oscar 19 24 Jan 12:00:03 12:04:36 31° 61° (ENE) 12:09:08 437.125/150
Max Valier Satellite 24 Jan 12:08:07 12:09:40 12° 303° (WNW) 12:11:13 145.860
YUBILEINY 24 Jan 12:13:15 12:19:49 25° 284° (WNW) 12:26:22 435.215
EO-88 24 Jan 12:16:50 12:18:42 14° 301° (WNW) 12:20:33 145.990 - 145.960
Gurwin Techsat 1B 24 Jan 12:17:55 12:22:39 34° 62° (ENE) 12:27:24 435.225
AO-85 24 Jan 12:22:35 12:26:40 90° 322° (NW) 12:31:07 145.980
SO-50 24 Jan 12:23:23 12:28:00 56° 42° (NE) 12:32:41 436.795
POLYITAN 1 24 Jan 12:25:45 12:29:29 29° 265° (W) 12:33:16 437.675
BUGSAT 1 24 Jan 12:27:55 12:32:00 66° 72° (ENE) 12:36:10 437.445
VELOX 1 24 Jan 12:33:29 12:36:44 20° 91° (E) 12:39:58 145.980
BEESAT 3 24 Jan 12:35:15 12:37:32 15° 345° (NNW) 12:39:49 437.485
NANOSAT C BR1 24 Jan 12:37:43 12:41:14 25° 267° (W) 12:44:49 145.865
RS-15 24 Jan 12:50:00 13:01:30 44° 0° (N) 13:12:32 29.354- 29.394
ESTCUBE 1 24 Jan 12:51:38 12:55:59 51° 291° (WNW) 13:00:19 437.505/2401.250
AO-91 24 Jan 12:52:44 12:56:10 73° 73° (ENE) 12:59:53 145.960
PCSat 24 Jan 12:53:27 12:57:20 19° 341° (NNW) 13:01:14 145.827
QB50P2 24 Jan 12:57:38 13:00:00 14° 272° (W) 13:02:23 145.880/145.840
AO-7 24 Jan 13:14:52 13:22:19 37° 50° (NE) 13:29:45 .
ITAMSAT 1 24 Jan 13:18:02 13:20:16 13° 48° (NE) 13:22:29 435.822/435.867
DUCHIFAT 1 24 Jan 13:21:13 13:22:58 12° 274° (W) 13:24:43 145.980
LO-87 24 Jan 13:22:38 13:24:55 16° 299° (WNW) 13:27:12 145.935 - 145.965
BEESAT 2 24 Jan 13:33:17 13:35:38 15° 346° (NNW) 13:38:00 435.950
SPROUT 24 Jan 13:34:21 13:38:39 66° 288° (WNW) 13:42:55 437.525
Oscar 19 24 Jan 13:38:42 13:43:44 49° 261° (W) 13:48:48 437.125/150
